Temp_Advection
nan nan nan nan nan nan nan nan nan nan nan nan nan nan nan nan nan nan nan nan nan nan nan nan nan nan nan nan nan nan nan nan nan nan nan nan nan nan nan nan nan nan nan nan
nan -0 -0 -0 0 -0 -0 0 -1 1 0 -0 -0 -0 -0 -0 -0 -0 -0 -0 0 -0 -0 0 -0 -0 -0 -0 -0 -0 -0 0 0 -0 -0 -0 0 -0 -0 -0 -0 -0 -0 nan
nan -0 -0 0 0 -1 -0 0 -0 -1 -1 0 -0 -0 -0 -0 -0 0 -0 0 -0 -0 -0 -0 -0 -0 -0 -0 -0 -0 -0 -0 -0 -0 0 0 -0 -0 0 -0 -0 -0 -0 nan
nan -0 -0 -0 -0 -0 -0 -0 -0 -0 0 0 -0 -0 -0 -0 -0 -0 -0 -0 -1 -0 -0 -0 -0 -0 -0 -0 0 0 0 0 0 -0 0 -0 -0 -0 -0 -0 -0 -0 -0 nan
nan -0 -0 -0 0 -1 -2 -0 0 0 0 -0 -0 -0 -0 -0 0 -0 -0 -0 -0 -0 -0 -0 -0 -0 -0 -0 -0 -0 -0 -0 0 0 0 -0 -0 -0 -0 -0 0 -0 0 nan
nan -0 -0 -0 0 -2 -1 0 0 0 -0 -0 -0 -0 -0 -0 -0 -0 -0 -0 -0 -1 -0 -0 0 0 -0 0 -0 -0 -0 -0 -0 0 0 0 -0 -0 -0 -0 -0 -0 -0 nan
nan -0 -0 -0 -0 -1 -1 -1 0 0 -0 -0 -0 -0 -0 -0 -0 -0 -0 -0 -0 -0 -0 0 0 0 0 0 0 0 -0 -0 -0 0 0 0 0 0 -0 -1 -0 0 -0 nan
nan -0 -0 -0 -0 -0 -0 -1 -0 0 0 -0 -1 -0 -0 -0 -0 -0 -0 -0 -0 -0 -0 -0 -0 -0 0 0 0 0 0 -0 0 -0 -0 -0 -0 -0 -0 0 -0 -0 -0 nan
nan -0 -0 -0 -0 -0 -0 -1 -1 -0 -0 -1 -0 -0 -0 -0 -0 0 -0 -0 0 -0 -0 0 0 -0 -0 -0 -0 -0 0 -0 -0 -0 0 0 -0 -0 0 0 0 -1 -1 nan
nan -0 -0 -0 -0 -0 -0 -0 -0 -1 -1 -0 0 -0 -0 -0 -0 -0 -0 0 0 0 -0 -0 -0 -0 0 -0 -0 -0 -0 -0 -0 -0 -0 -0 -0 -0 -0 1 -1 -1 -1 nan
nan -0 -0 -0 -0 -0 -0 -0 -0 -1 -1 -0 -0 -0 -0 -0 -0 -0 -0 -0 0 -0 -0 -0 -0 0 -0 0 -0 -0 -0 -0 -0 -0 0 0 -1 -0 -0 -1 -1 -1 -1 nan
nan -0 -0 -0 0 -0 -0 -0 -0 -1 -1 -0 -0 -0 -0 -0 -0 -0 -0 -0 -0 -0 -0 -0 -0 -0 0 0 -0 -0 0 -0 -0 -0 -0 -1 -1 -0 -1 -1 -1 -2 -1 nan
nan -0 -0 -0 -0 -0 -0 -0 -0 -0 -1 -0 0 0 0 0 0 0 -0 -0 -0 -0 0 -0 -0 -0 -0 0 -0 0 -0 -0 -0 -0 -0 -1 -0 -0 -0 -1 -1 -1 -1 nan
nan -0 -0 -0 -0 -0 -0 -0 -0 -0 -0 -0 -0 -0 0 0 -0 0 -0 -0 0 -0 0 0 -0 -0 -0 -0 -0 -0 -0 -0 -1 -0 -0 -1 0 0 -0 -0 -0 -1 -1 nan
nan -0 -0 -0 0 0 -0 -0 -0 -0 -0 -0 -0 -0 -0 -0 -0 0 0 -0 -0 -0 0 -0 -0 -0 0 -0 -0 -0 -0 -0 -0 -0 -1 -0 -0 -0 0 -0 -1 -0 -1 nan
nan 0 -0 -0 -0 0 0 0 -0 -0 -0 0 -0 -0 -0 -0 -0 -0 -0 0 -0 0 -0 -0 -0 0 -0 -0 -0 -0 -0 -0 -0 0 -0 -1 -1 -0 0 -0 -1 -1 -1 nan
nan 0 0 -0 -0 -0 -0 -0 0 0 -0 -0 0 -0 0 -0 -0 0 -0 -0 -0 -0 0 0 -0 -0 -0 -0 -0 -0 0 0 0 0 -0 -0 -0 -0 -1 -0 -0 -0 -0 nan
nan 0 0 0 0 0 0 -0 -0 -0 -0 -0 -0 -0 -0 -0 -0 -0 -0 -0 -0 -0 -0 0 0 -0 -0 -0 -0 0 0 -0 -0 0 0 0 -0 0 -0 0 -0 0 -0 nan
nan 0 0 0 0 0 0 0 -0 -0 -0 -0 -0 -0 0 0 -0 -0 -0 -0 -0 -0 0 -0 -0 0 0 -0 0 0 0 0 -0 -1 0 0 -0 -0 -0 0 0 -0 -0 nan
nan 0 0 -0 -0 0 0 0 -0 -0 -0 -0 -0 -0 -0 -0 -0 0 -0 -0 0 -0 -0 -0 -0 -0 -0 0 0 0 0 1 0 -0 -0 0 0 -0 -0 -0 -0 -0 -0 nan
nan -0 -0 0 0 0 0 0 -0 -0 -0 -0 -0 -0 -0 -0 -0 -0 -0 -0 -0 -0 -0 -0 -0 0 -0 0 0 0 0 0 0 0 -0 -0 0 -0 -0 -0 -0 -0 -0 nan
nan 0 0 0 0 0 -0 -0 0 0 -0 -0 -0 0 0 0 -0 -0 0 -0 -0 0 0 -0 0 -0 0 0 0 0 0 0 0 0 0 -0 -0 -0 -0 -0 -0 -0 -0 nan
nan 0 0 0 0 0 0 0 -0 0 0 -0 -0 -0 0 0 0 -0 -0 -0 -0 0 -0 0 -0 0 0 0 0 0 0 0 0 0 0 -0 -0 -0 -0 -0 -0 -0 -0 nan
nan 0 0 0 0 0 0 0 -0 0 -0 -0 -0 -0 0 0 0 -0 0 -0 -0 -0 -0 0 -0 1 0 0 0 0 0 0 0 0 0 0 -0 -0 -0 -0 -0 -0 -0 nan
nan 0 0 0 0 0 0 0 0 0 0 -0 -0 0 -0 -0 0 0 -0 -0 -0 0 -0 -0 0 1 0 0 0 0 0 0 0 0 0 0 0 -0 -0 -0 0 -0 -0 nan
nan 0 -0 0 -0 -0 -0 0 0 0 0 -0 0 -0 -0 0 0 -0 -0 -0 -0 -0 0 0 0 0 0 0 0 0 0 0 0 0 0 0 0 0 -0 0 -0 -0 -0 nan
nan nan nan nan nan nan nan nan nan nan nan nan nan nan nan nan nan nan nan nan nan nan nan nan nan nan nan nan nan nan nan nan nan nan nan nan nan nan nan nan nan nan nan nan
Wind_Speed
39 38 37 33 30 18 23 24 12 26 23 18 11 12 8 6 13 9 9 10 10 10 7 7 4 6 6 8 8 5 5 3 2 4 2 1 2 6 5 4 4 0 3 3
37 37 35 31 25 18 10 23 24 34 22 12 12 13 11 18 15 15 7 10 9 8 5 3 5 4 5 8 8 7 8 2 2 5 3 4 4 6 4 6 3 2 4 4
35 35 33 29 22 17 13 9 4 16 26 24 13 11 14 7 15 16 12 10 6 3 8 8 5 4 5 5 9 6 3 3 5 6 6 4 5 10 8 3 3 7 5 5
32 33 30 27 25 16 9 10 6 8 8 13 13 16 12 15 8 11 18 9 15 5 4 5 5 6 2 2 8 4 3 2 4 5 6 6 7 8 10 8 4 5 8 5
29 29 27 26 22 25 24 6 6 12 15 15 16 10 11 12 9 10 7 9 11 12 7 6 5 6 7 6 6 3 3 2 2 3 4 6 11 13 10 8 9 3 8 4
25 25 23 25 24 20 12 12 12 6 11 11 6 9 11 11 3 9 9 8 5 8 7 6 5 5 5 5 6 6 4 3 3 4 3 5 3 9 10 10 11 4 8 12
21 23 19 22 23 22 18 15 6 7 7 7 7 7 7 8 10 5 9 10 6 3 1 1 2 3 4 5 7 8 5 2 2 2 4 4 5 4 7 12 11 13 13 13
17 20 15 16 20 18 17 14 5 4 4 4 8 11 9 2 2 6 6 7 3 1 2 2 3 4 4 3 5 7 7 3 1 3 4 5 5 3 3 4 6 11 14 14
12 16 15 11 13 15 16 13 10 6 3 7 5 7 7 4 6 2 5 3 3 1 3 2 3 4 3 3 4 2 3 3 3 3 3 2 6 7 7 4 4 17 19 17
8 11 14 9 8 11 12 10 6 6 8 4 6 4 3 6 4 3 2 7 5 3 2 2 3 3 2 3 5 6 5 4 5 5 2 4 9 13 4 5 5 19 20 19
6 8 10 10 4 6 8 10 9 11 8 6 6 6 4 4 5 4 8 2 3 4 2 3 2 3 3 1 2 2 4 4 4 3 2 1 20 4 5 6 14 20 21 19
6 5 8 8 4 3 6 7 7 10 8 6 8 9 9 7 3 3 5 2 2 4 2 2 1 1 1 1 1 1 0 4 4 3 4 8 16 8 7 14 17 22 19 20
6 5 6 5 4 3 3 4 3 4 8 6 3 2 6 10 7 3 2 1 1 2 2 3 2 2 3 2 4 2 3 6 3 7 6 17 7 6 13 21 22 20 21 23
5 3 5 4 2 2 3 5 4 2 3 2 2 5 6 6 8 6 2 1 2 2 2 1 1 1 3 3 3 5 5 7 9 8 3 23 7 16 27 29 26 28 28 28
4 3 4 4 3 3 2 5 8 5 1 1 4 2 7 4 6 5 3 1 1 0 0 1 2 2 1 3 3 3 5 2 4 5 21 15 21 26 30 29 34 32 32 31
5 4 2 3 4 5 4 2 4 6 1 2 2 4 2 5 2 3 3 0 1 2 2 3 3 2 2 2 2 5 2 6 9 14 23 24 30 21 24 30 29 28 26 27
5 5 4 3 3 5 4 2 6 4 2 1 2 2 2 5 1 1 2 4 2 2 2 2 2 2 1 1 2 5 11 19 18 10 16 14 12 22 28 24 25 25 25 25
4 6 5 4 4 5 3 3 6 3 1 1 0 1 2 5 1 1 3 1 1 4 2 2 1 2 2 2 2 8 19 21 14 15 20 19 21 23 23 23 23 25 26 26
5 5 6 7 5 3 3 3 2 5 2 2 2 3 3 5 2 2 1 1 1 1 1 2 2 2 2 2 5 15 15 12 20 23 20 17 18 20 21 21 22 23 24 24
3 3 3 3 2 4 3 0 1 1 3 3 2 2 2 5 4 1 3 2 1 2 2 0 2 1 2 3 12 16 16 15 15 16 18 21 19 19 20 21 21 21 21 23
2 2 3 3 3 1 1 0 2 3 2 3 1 1 5 3 2 2 2 1 0 2 2 2 2 2 4 8 16 15 14 13 13 11 14 15 17 20 21 21 21 21 21 21
3 3 3 2 1 0 0 1 1 1 1 1 2 3 2 2 1 2 1 1 1 1 2 2 2 3 4 13 15 14 14 14 12 12 14 15 15 16 18 19 21 21 21 20
3 2 2 1 2 1 1 2 1 1 1 1 4 2 1 2 1 0 2 2 0 1 2 1 1 3 9 14 14 14 13 13 12 13 13 14 15 15 16 19 18 19 19 18
2 2 2 1 1 1 1 0 1 1 0 2 3 2 2 1 2 1 2 2 1 2 2 1 1 7 12 13 13 13 14 13 14 15 15 15 16 16 16 17 16 18 17 18
2 2 3 2 2 2 3 3 1 2 2 2 1 1 1 1 2 1 1 2 2 1 1 2 5 10 12 11 12 12 13 14 16 16 17 17 16 16 18 16 16 16 15 16
3 3 3 3 2 3 3 5 2 2 2 1 1 1 1 2 1 2 1 2 2 1 1 4 6 10 10 11 11 11 12 14 16 16 16 16 16 17 18 16 17 16 14 15
2 1 4 6 2 3 5 5 4 2 2 0 1 2 1 1 1 2 2 2 1 1 3 5 8 8 9 10 10 10 11 13 15 16 16 15 14 17 15 17 18 18 15 15
Wind_Direction
11 13 13 15 18 40 47 45 57 9 51 66 59 57 36 32 31 37 46 40 45 38 26 39 65 67 42 7 349 3 35 320 342 38 105 40 33 6 331 294 21 221 286 87
16 17 15 17 24 31 45 63 58 36 54 59 68 76 75 50 43 37 34 36 39 35 38 58 50 56 27 10 8 13 356 99 239 164 175 187 48 30 334 285 256 312 316 61
19 20 20 28 32 51 49 56 46 38 44 54 61 58 43 67 39 48 48 37 39 27 47 46 50 39 33 14 5 2 317 358 15 22 30 336 28 21 4 316 303 335 42 350
22 22 25 34 39 55 63 56 56 41 39 42 60 63 58 54 35 45 24 37 29 24 37 54 38 22 19 68 16 28 5 57 53 69 82 77 58 35 37 41 359 8 351 351
23 26 31 38 44 64 78 87 94 72 67 58 56 49 45 44 32 20 26 35 29 40 59 37 359 355 22 30 337 32 360 91 183 107 122 91 65 32 31 34 4 358 321 88
24 28 35 42 47 53 78 79 78 94 45 44 54 32 43 42 18 44 37 5 4 41 33 23 43 54 59 46 11 8 4 339 277 110 174 207 110 18 52 63 44 337 11 330
26 28 37 45 52 57 82 96 76 81 73 64 48 27 39 31 43 43 33 25 38 23 102 61 104 93 82 51 40 23 342 344 312 64 199 225 100 92 102 82 45 27 26 25
27 28 35 49 57 61 67 83 81 81 84 30 38 14 359 24 68 45 38 33 18 331 238 260 250 192 206 47 36 23 18 298 0 290 36 109 151 55 350 339 68 27 6 5
27 28 29 46 60 63 65 70 85 101 84 30 327 335 5 349 350 177 47 16 342 327 275 246 338 33 325 349 355 28 352 180 295 353 318 345 40 355 324 260 189 14 1 354
20 24 26 33 62 65 60 66 73 98 95 28 10 22 347 338 337 282 16 344 352 340 308 35 5 61 327 350 3 346 348 352 7 354 354 113 6 335 339 220 38 356 351 342
10 17 18 21 55 71 47 73 80 95 99 80 59 63 39 342 359 344 349 262 49 347 34 348 50 349 53 228 54 16 343 319 23 292 302 182 6 351 335 25 356 343 334 327
15 8 6 10 11 113 45 66 82 86 90 116 85 63 48 38 350 312 350 52 25 16 299 50 271 88 204 351 82 153 210 7 321 350 18 22 351 101 60 14 342 334 323 317
354 12 5 4 17 128 44 59 113 89 97 81 50 21 26 34 28 16 305 65 49 56 80 5 43 67 305 339 59 270 98 14 336 323 49 351 344 51 352 344 335 328 319 311
325 335 8 6 345 131 75 43 30 64 125 156 110 64 43 40 40 38 40 294 86 93 73 36 17 29 359 57 71 60 359 352 327 286 336 346 214 324 338 330 327 326 323 319
293 293 356 9 310 245 122 39 37 27 208 22 154 81 34 34 41 39 37 87 135 4 138 17 66 80 213 93 115 92 23 17 329 290 319 309 297 308 322 318 323 321 320 322
278 240 321 4 356 336 325 337 0 7 170 139 176 184 38 14 34 30 32 191 84 87 68 98 97 80 329 242 81 138 137 320 285 281 301 293 298 306 306 318 320 322 319 316
273 239 249 311 359 18 37 14 323 328 178 129 141 206 251 3 35 341 16 30 55 86 101 87 109 104 323 46 75 359 318 321 312 290 300 311 307 313 320 322 324 326 325 324
272 242 246 261 281 289 288 326 0 2 70 79 323 23 192 12 352 330 2 357 123 36 100 98 94 124 90 126 341 306 320 322 324 311 320 309 314 321 326 331 329 326 325 329
289 251 262 284 262 254 275 281 325 26 59 106 52 350 350 341 356 353 341 15 169 73 116 84 250 162 184 101 320 323 325 316 306 314 322 326 324 323 326 328 329 326 327 329
282 285 267 262 233 291 274 321 311 11 34 66 82 356 320 346 338 50 325 11 79 214 75 319 236 138 139 248 327 326 322 318 319 316 324 327 326 328 328 328 328 325 323 324
270 243 243 262 287 253 212 156 40 8 69 40 40 313 324 343 313 347 31 348 342 243 100 273 180 213 173 304 326 329 324 325 326 314 308 312 315 320 322 325 327 326 323 322
260 270 270 271 258 164 128 37 341 17 15 18 326 341 301 304 332 283 12 301 235 275 350 249 236 112 297 328 332 336 333 331 328 320 317 317 317 320 319 320 323 323 323 324
268 256 249 251 318 71 239 326 105 301 161 23 344 331 311 303 357 343 277 256 61 330 220 275 23 165 328 331 335 338 335 332 328 325 323 323 323 324 325 322 322 321 326 332
234 217 265 248 168 201 159 223 78 216 103 334 331 290 303 297 258 315 276 58 266 250 253 319 131 314 330 333 335 335 335 336 335 332 333 331 329 327 329 328 327 334 330 336
238 201 242 191 155 140 177 181 185 266 294 343 332 208 236 225 260 281 301 240 260 258 321 354 324 316 328 334 336 333 336 340 341 339 339 337 332 329 329 331 339 327 332 332
226 212 146 159 174 189 210 209 218 267 302 88 128 264 245 226 285 236 226 283 272 23 265 316 310 322 330 335 335 336 340 342 343 343 339 335 334 333 336 342 335 332 331 327
219 213 201 188 172 161 182 179 193 211 123 12 157 240 263 84 231 239 202 235 358 309 310 300 316 322 333 337 335 340 342 344 345 345 340 340 341 338 340 341 340 344 338 331
Height
1504 1496 1488 1481 1473 1469 1465 1463 1461 1464 1459 1452 1461 1469 1474 1477 1476 1474 1474 1474 1474 1473 1473 1473 1474 1479 1480 1484 1481 1476 1479 1479 1467 1480 1487 1488 1486 1484 1476 1463 1455 1450 1446 1461
1507 1499 1492 1485 1477 1473 1471 1471 1474 1473 1468 1464 1471 1478 1481 1483 1481 1480 1479 1481 1481 1481 1480 1480 1479 1481 1487 1487 1484 1483 1481 1477 1466 1479 1486 1485 1481 1485 1490 1484 1475 1455 1454 1466
1511 1503 1496 1489 1482 1478 1475 1475 1477 1481 1480 1482 1481 1482 1485 1486 1487 1487 1487 1486 1484 1482 1481 1481 1486 1486 1489 1489 1488 1487 1485 1480 1478 1475 1485 1485 1484 1485 1487 1489 1469 1476 1482 1478
1515 1507 1501 1494 1488 1483 1480 1482 1494 1494 1492 1490 1489 1489 1491 1491 1492 1490 1490 1489 1490 1491 1489 1485 1489 1489 1488 1489 1489 1488 1487 1484 1482 1485 1486 1485 1486 1486 1489 1494 1500 1484 1494 1491
1518 1512 1507 1499 1495 1489 1483 1490 1495 1498 1497 1497 1495 1495 1497 1498 1498 1497 1497 1497 1496 1495 1498 1502 1502 1497 1494 1494 1490 1488 1488 1483 1485 1485 1485 1484 1491 1491 1490 1494 1499 1491 1488 1487
1522 1516 1511 1505 1500 1495 1494 1498 1499 1499 1503 1502 1499 1505 1503 1502 1500 1503 1503 1501 1498 1500 1504 1503 1502 1501 1500 1500 1497 1492 1492 1488 1484 1482 1485 1483 1486 1502 1498 1501 1502 1504 1496 1496
1524 1520 1516 1511 1506 1503 1501 1501 1504 1503 1507 1507 1509 1509 1507 1505 1504 1504 1505 1503 1501 1507 1505 1505 1504 1503 1502 1500 1499 1498 1492 1493 1489 1479 1483 1485 1503 1501 1500 1503 1505 1503 1501 1498
1526 1523 1519 1515 1511 1509 1507 1506 1507 1508 1511 1512 1512 1511 1510 1506 1506 1505 1506 1506 1507 1505 1506 1502 1500 1495 1498 1497 1499 1497 1498 1495 1489 1483 1481 1498 1500 1503 1504 1503 1507 1508 1505 1502
1528 1525 1522 1519 1516 1513 1512 1510 1509 1509 1511 1519 1520 1516 1514 1511 1507 1503 1507 1508 1506 1506 1503 1497 1497 1496 1505 1496 1495 1498 1496 1497 1490 1485 1484 1485 1502 1503 1504 1504 1500 1510 1509 1506
1529 1527 1524 1521 1519 1517 1515 1514 1513 1512 1516 1521 1519 1518 1518 1516 1513 1509 1508 1509 1507 1506 1499 1496 1497 1497 1508 1500 1503 1506 1499 1497 1494 1489 1487 1497 1505 1504 1502 1502 1513 1513 1511 1509
1530 1528 1525 1523 1521 1519 1519 1517 1516 1515 1517 1522 1520 1519 1519 1518 1517 1513 1511 1509 1508 1505 1501 1499 1503 1499 1508 1507 1516 1518 1514 1511 1496 1494 1493 1496 1510 1503 1504 1517 1514 1514 1512 1510
1530 1529 1526 1524 1522 1521 1520 1518 1518 1516 1517 1522 1521 1519 1519 1518 1518 1517 1515 1514 1514 1514 1508 1508 1507 1503 1508 1514 1498 1522 1513 1524 1519 1517 1509 1516 1516 1515 1517 1516 1515 1512 1510 1507
1530 1528 1526 1524 1523 1521 1520 1519 1519 1519 1520 1523 1523 1522 1519 1518 1517 1517 1518 1516 1514 1514 1514 1514 1513 1513 1514 1504 1513 1517 1523 1527 1520 1519 1519 1518 1515 1516 1515 1513 1511 1508 1507 1503
1528 1527 1526 1525 1524 1522 1521 1520 1519 1519 1520 1522 1525 1522 1522 1519 1518 1517 1517 1517 1515 1515 1515 1515 1513 1511 1520 1517 1523 1524 1533 1530 1530 1519 1516 1514 1513 1512 1511 1509 1506 1503 1500 1496
1528 1527 1526 1524 1524 1523 1522 1521 1520 1518 1522 1521 1524 1523 1521 1520 1519 1518 1518 1517 1517 1516 1515 1515 1517 1520 1520 1523 1524 1530 1535 1538 1534 1524 1523 1523 1516 1512 1509 1504 1501 1498 1493 1488
1526 1526 1526 1524 1524 1522 1522 1521 1521 1519 1520 1521 1522 1522 1521 1520 1519 1518 1517 1517 1517 1517 1517 1520 1521 1522 1523 1516 1522 1535 1535 1535 1533 1528 1524 1519 1515 1511 1507 1502 1497 1492 1489 1484
1525 1525 1525 1524 1523 1523 1523 1524 1522 1519 1519 1520 1521 1521 1520 1519 1518 1518 1517 1517 1517 1518 1519 1520 1520 1522 1523 1522 1523 1533 1531 1529 1526 1523 1520 1513 1511 1507 1502 1498 1493 1488 1484 1479
1524 1524 1524 1524 1523 1522 1522 1521 1520 1518 1519 1519 1520 1519 1520 1519 1518 1518 1517 1517 1518 1519 1520 1521 1521 1523 1523 1527 1531 1530 1527 1523 1519 1518 1516 1513 1507 1503 1498 1494 1489 1484 1479 1474
1522 1523 1523 1523 1522 1521 1521 1520 1519 1519 1522 1520 1521 1520 1518 1519 1518 1518 1518 1516 1516 1520 1520 1522 1523 1522 1523 1527 1528 1526 1524 1521 1517 1512 1510 1507 1504 1500 1495 1491 1486 1481 1476 1471
1522 1522 1523 1521 1520 1519 1520 1519 1519 1518 1519 1520 1523 1524 1521 1523 1519 1518 1518 1517 1517 1513 1523 1522 1519 1522 1526 1526 1525 1522 1519 1516 1513 1509 1505 1502 1499 1496 1492 1487 1483 1478 1474 1469
1522 1521 1521 1520 1519 1519 1519 1519 1519 1520 1522 1523 1524 1524 1524 1523 1522 1519 1521 1519 1519 1512 1520 1518 1515 1515 1523 1523 1521 1518 1515 1512 1509 1507 1505 1501 1497 1492 1488 1484 1480 1475 1471 1466
1521 1521 1520 1519 1519 1518 1519 1521 1522 1521 1521 1524 1524 1524 1524 1523 1522 1521 1522 1518 1519 1510 1522 1517 1509 1518 1521 1519 1516 1513 1511 1508 1506 1504 1500 1497 1493 1490 1485 1481 1476 1472 1467 1463
1519 1520 1519 1518 1519 1519 1516 1519 1518 1519 1522 1524 1524 1525 1524 1523 1523 1522 1522 1516 1513 1522 1516 1508 1513 1518 1518 1515 1512 1510 1508 1505 1503 1500 1497 1493 1489 1486 1482 1478 1473 1469 1464 1461
1518 1518 1518 1517 1516 1518 1518 1519 1520 1521 1521 1522 1522 1523 1524 1523 1523 1522 1517 1521 1521 1511 1509 1508 1515 1516 1514 1512 1509 1507 1505 1502 1500 1496 1493 1489 1486 1482 1479 1475 1470 1467 1463 1459
1517 1517 1514 1516 1516 1516 1517 1518 1519 1520 1520 1521 1522 1522 1523 1521 1521 1521 1520 1517 1509 1510 1508 1513 1515 1513 1511 1509 1507 1505 1502 1500 1497 1494 1490 1486 1483 1479 1475 1471 1468 1465 1461 1458
1515 1514 1515 1516 1516 1516 1517 1517 1518 1519 1518 1519 1521 1521 1520 1519 1521 1519 1514 1512 1506 1509 1513 1513 1512 1510 1509 1507 1505 1503 1500 1497 1495 1491 1488 1485 1481 1477 1473 1469 1467 1462 1459 1455
1513 1513 1512 1512 1512 1513 1514 1515 1516 1517 1518 1519 1521 1520 1515 1523 1519 1516 1517 1510 1510 1512 1511 1510 1509 1508 1507 1505 1503 1501 1499 1496 1493 1490 1486 1483 1479 1475 1472 1468 1464 1460 1458 1454